Date String (YYYY-MM-DD hh:mm:ss) UTC,Instrument flags,Ambient pressure (hPa),Sample flow (lpm),Bypass flow (lpm),Sample temperature (°C),Ambient temperature (°C),ASC tube jacket temperature (°C),LED temperature (°C),Box temperature (°C),Sample RH (%),Span deviation,Mass concentration (μg/m³),Mass concentration (μg/m³),Mass concentration (μg/m³)
DateTimeUTC,F1_M11,P_M11,Q1_M11,Q2_M11,T1_M11,T2_M11,T3_M11,T4_M11,T5_M11,U1_M11,ZSPAN_M11,X0_M11,X2_M11,X1_M11
2022-06-14 10:00:00,,0818.4,4.99,0.00,29.5,28.6,00.0,38.4,31.3,16.4,0007.9,0042.69,0012.93,0004.73
2022-06-14 10:01:00,,0818.4,5.01,0.00,29.5,28.6,00.0,38.4,31.4,16.4,0007.6,0042.88,0013.00,0004.74
2022-06-14 10:02:00,,0818.4,5.00,0.00,29.5,28.7,00.0,38.4,31.4,16.4,0007.9,0043.46,0013.13,0004.75
2022-06-14 10:03:00,,0818.4,4.99,0.00,29.5,28.7,00.0,38.4,31.4,16.4,0006.8,0044.61,0013.08,0004.75
2022-06-14 10:04:00,,0818.4,5.01,0.00,29.5,28.7,00.0,38.4,31.4,16.4,0005.5,0045.28,0013.16,0004.76
2022-06-14 10:05:00,,0818.4,5.01,0.00,29.5,28.7,00.0,38.4,31.4,16.4,0005.8,0046.09,0013.33,0004.77
2022-06-14 10:06:00,,0818.4,5.00,0.00,29.6,28.7,00.0,38.4,31.4,16.4,0006.1,0045.94,0013.35,0004.76
2022-06-14 10:07:00,,0818.4,5.00,0.00,29.6,28.7,00.0,38.4,31.5,16.4,0005.6,0046.21,0013.47,0004.76
2022-06-14 10:08:00,,0818.4,5.00,0.00,29.6,28.8,00.0,38.4,31.5,16.4,0005.6,0046.98,0013.50,0004.75
2022-06-14 10:09:00,,0818.4,4.99,0.00,29.6,28.8,00.0,38.4,31.5,16.3,0005.7,0047.01,0013.54,0004.74
2022-06-14 10:10:00,,0818.4,5.00,0.00,29.6,28.8,00.0,38.5,31.5,16.3,0005.6,0046.30,0013.72,0004.76
2022-06-14 10:11:00,,0818.4,5.00,0.00,29.6,28.8,00.0,38.5,31.5,16.3,0005.1,0046.23,0013.81,0004.79
2022-06-14 10:12:00,,0818.4,5.00,0.00,29.6,28.8,00.0,38.5,31.5,16.3,0004.9,0045.43,0013.73,0004.78
2022-06-14 10:13:00,,0818.4,4.99,0.00,29.7,28.8,00.0,38.5,31.5,16.3,0004.6,0045.23,0013.67,0004.77
2022-06-14 10:14:00,,0818.4,5.00,0.00,29.7,28.8,00.0,38.5,31.5,16.3,0004.5,0044.87,0013.68,0004.78
2022-06-14 10:15:00,,0818.5,4.99,0.00,29.7,28.8,00.0,38.5,31.5,16.3,0004.6,0044.14,0013.67,0004.79
2022-06-14 10:16:00,,0818.5,4.99,0.00,29.7,28.8,00.0,38.5,31.5,16.3,0004.5,0044.37,0013.76,0004.80
2022-06-14 10:17:00,,0818.5,5.01,0.00,29.7,28.8,00.0,38.5,31.5,16.3,0003.9,0046.27,0013.74,0004.79
2022-06-14 10:18:00,,0818.5,5.01,0.00,29.7,28.8,00.0,38.5,31.5,16.3,0004.4,0048.32,0013.80,0004.80
2022-06-14 10:19:00,,0818.5,5.00,0.00,29.7,28.8,00.0,38.5,31.5,16.3,0003.5,0048.62,0013.91,0004.80
2022-06-14 10:20:00,,0818.5,4.99,0.00,29.7,28.8,00.0,38.5,31.5,16.3,0001.8,0048.32,0014.09,0004.81
2022-06-14 10:21:00,,0818.5,5.00,0.00,29.7,28.8,00.0,38.6,31.5,16.3,0000.3,0049.20,0014.20,0004.81
2022-06-14 10:22:00,,0818.5,5.00,0.00,29.7,28.8,00.0,38.6,31.5,16.4,0000.8,0049.83,0014.24,0004.80
2022-06-14 10:23:00,,0818.5,5.00,0.00,29.7,28.8,00.0,38.6,31.5,16.4,0001.0,0049.89,0014.24,0004.79
2022-06-14 10:24:00,,0818.5,4.99,0.00,29.7,28.7,00.0,38.6,31.5,16.4,0002.0,0049.86,0014.21,0004.82
2022-06-14 10:25:00,,0818.5,5.00,0.00,29.6,28.7,00.0,38.6,31.5,16.4,0003.0,0049.68,0014.20,0004.83
2022-06-14 10:26:00,,0818.6,5.01,0.00,29.6,28.7,00.0,38.6,31.4,16.4,0002.4,0050.27,0014.33,0004.85
2022-06-14 10:27:00,,0818.6,5.01,0.00,29.6,28.7,00.0,38.6,31.4,16.4,0002.4,0051.36,0014.23,0004.84
2022-06-14 10:28:00,,0818.6,5.00,0.00,29.6,28.7,00.0,38.6,31.4,16.4,0002.8,0049.85,0014.17,0004.83
2022-06-14 10:29:00,,0818.7,5.00,0.00,29.6,28.7,00.0,38.6,31.4,16.4,0002.8,0048.86,0014.18,0004.85
2022-06-14 10:30:00,,0818.7,5.01,0.00,29.6,28.7,00.0,38.6,31.4,16.5,0003.4,0048.96,0014.29,0004.85
2022-06-14 10:31:00,,0818.7,5.00,0.00,29.6,28.7,00.0,38.6,31.4,16.5,0004.1,0048.33,0014.24,0004.86
2022-06-14 10:32:00,,0818.7,5.00,0.00,29.6,28.7,00.0,38.5,31.4,16.5,0004.6,0047.31,0014.10,0004.85
2022-06-14 10:33:00,,0818.8,5.00,0.00,29.6,28.7,00.0,38.5,31.4,16.5,0004.2,0046.39,0014.03,0004.85
2022-06-14 10:34:00,,0818.7,5.00,0.00,29.6,28.7,00.0,38.5,31.4,16.5,0004.8,0046.18,0013.95,0004.86
2022-06-14 10:35:00,,0818.7,5.00,0.00,29.6,28.7,00.0,38.5,31.4,16.5,0004.3,0046.48,0013.94,0004.85
2022-06-14 10:36:00,,0818.7,5.01,0.00,29.6,28.7,00.0,38.5,31.4,16.6,0005.4,0045.77,0013.90,0004.83
2022-06-14 10:37:00,,0818.8,5.01,0.00,29.6,28.7,00.0,38.5,31.4,16.7,0004.3,0045.10,0013.84,0004.81
2022-06-14 10:38:00,,0818.7,5.00,0.00,29.6,28.6,00.0,38.5,31.4,16.7,0004.4,0043.54,0013.84,0004.81
2022-06-14 10:39:00,,0818.7,5.00,0.00,29.6,28.6,00.0,38.5,31.4,16.8,0005.3,0044.24,0013.90,0004.84
2022-06-14 10:40:00,,0818.8,5.00,0.00,29.5,28.6,00.0,38.5,31.3,16.8,0006.8,0043.76,0013.97,0004.86
2022-06-14 10:41:00,,0818.8,5.00,0.00,29.5,28.6,00.0,38.5,31.3,16.9,0008.8,0043.02,0013.76,0004.88
2022-06-14 10:42:00,,0818.7,5.01,0.00,29.5,28.6,00.0,38.5,31.3,16.9,0007.3,0042.97,0013.61,0004.89
2022-06-14 10:43:00,,0818.7,5.01,0.00,29.5,28.6,00.0,38.5,31.3,16.9,0005.1,0043.57,0013.59,0004.89
2022-06-14 10:44:00,,0818.8,5.00,0.00,29.5,28.5,00.0,38.5,31.3,17.0,0003.6,0043.96,0013.57,0004.92
2022-06-14 10:45:00,,0818.8,4.99,0.00,29.5,28.5,00.0,38.5,31.3,16.9,0003.0,0045.66,0013.54,0004.95
2022-06-14 10:46:00,,0818.8,4.99,0.00,29.5,28.5,00.0,38.5,31.3,17.0,0001.9,0045.17,0013.50,0004.98
2022-06-14 10:47:00,,0818.8,5.00,0.00,29.5,28.5,00.0,38.5,31.3,17.0,0000.8,0045.19,0013.43,0005.01
2022-06-14 10:48:00,,0818.8,5.00,0.00,29.5,28.5,00.0,38.5,31.2,17.0,0001.8,0045.07,0013.26,0005.03
2022-06-14 10:49:00,,0818.8,5.00,0.00,29.5,28.5,00.0,38.5,31.2,17.0,0001.5,0045.55,0013.23,0005.06
2022-06-14 10:50:00,,0818.8,5.01,0.00,29.4,28.5,00.0,38.5,31.2,17.0,0001.3,0044.14,0013.17,0005.07
2022-06-14 10:51:00,,0818.8,5.01,0.00,29.4,28.4,00.0,38.4,31.2,16.9,0001.4,0043.08,0013.13,0005.06
2022-06-14 10:52:00,,0818.8,4.98,0.00,29.4,28.4,00.0,38.4,31.2,16.9,0001.6,0042.41,0013.19,0005.10
2022-06-14 10:53:00,,0818.9,5.00,0.00,29.4,28.4,00.0,38.4,31.2,17.0,0002.5,0042.32,0013.25,0005.13
2022-06-14 10:54:00,,0818.9,5.00,0.00,29.4,28.4,00.0,38.4,31.2,17.0,0002.4,0042.29,0013.24,0005.17
2022-06-14 10:55:00,,0818.9,5.01,0.00,29.4,28.4,00.0,38.4,31.2,17.0,0002.5,0041.76,0013.26,0005.17
2022-06-14 10:56:00,,0818.9,5.00,0.00,29.4,28.4,00.0,38.4,31.2,17.1,0002.5,0040.42,0013.32,0005.18
2022-06-14 10:57:00,,0818.9,5.00,0.00,29.4,28.4,00.0,38.4,31.2,17.2,0003.7,0040.91,0013.38,0005.19
2022-06-14 10:58:00,,0818.9,5.00,0.00,29.4,28.4,00.0,38.4,31.1,17.1,0004.5,0041.12,0013.41,0005.20
2022-06-14 10:59:00,,0819.0,5.01,0.00,29.4,28.4,00.0,38.4,31.1,17.2,0003.7,0041.04,0013.48,0005.22
